Overview Statistics Trail Chart Weather Telemetry Raw packets
 

This is the latest recevied weather packets stored in our database for station/object W6MAF. If no packets are shown the sender has not sent any weather packets the latest 10 day(s).

<< 58 59 60 61 62 63 64 >>
Time Temp. Humidity Pressure Rain* Wind** Luminosity Snow
1788253623 18.89° C 17% - 0 mm 5.36 m/s, 160° - -
1788253326 18.89° C 17% - 0 mm 5.36 m/s, 166° - -
1788253028 18.89° C 17% - 0 mm 2.68 m/s, 218° - -
1788252727 18.89° C 16% - 0 mm 5.81 m/s, 143° - -
1788252429 18.89° C 18% - 0 mm 3.13 m/s, 214° - -
1788252131 18.33° C 19% - 0 mm 4.92 m/s, 193° - -
1788251833 18.33° C 20% - 0 mm 6.26 m/s, 203° - -
1788251536 18.33° C 20% - 0 mm 1.79 m/s, 208° - -
1788251238 18.33° C 20% - 0 mm 4.02 m/s, 217° - -
1788250937 18.33° C 20% - 0 mm 3.58 m/s, 197° - -
1788250639 18.33° C 19% - 0 mm 3.58 m/s, 195° - -
1788250342 17.78° C 19% - 0 mm 4.92 m/s, 205° - -
1788250044 17.78° C 18% - 0 mm 3.58 m/s, 193° - -
1788249746 17.78° C 18% - 0 mm 3.58 m/s, 169° - -
1788249449 17.78° C 18% - 0 mm 6.26 m/s, 184° - -
1788249148 17.78° C 17% - 0 mm 4.02 m/s, 197° - -
1788248850 17.22° C 16% - 0 mm 2.68 m/s, 195° - -
1788248554 17.22° C 16% - 0 mm 3.58 m/s, 191° - -
1788248255 16.67° C 17% - 0 mm 4.92 m/s, 193° - -
1788247957 16.11° C 21% - 0 mm 3.13 m/s, 184° - -
1788247658 16.11° C 25% - 0 mm 3.13 m/s, 186° - -
1788247357 16.67° C 29% - 0 mm 3.13 m/s, 197° - -
1788246762 16.67° C 23% - 0 mm 3.13 m/s, 187° - -
1788246463 16.67° C 23% - 0 mm 3.58 m/s, 193° - -
1788246165 16.67° C 25% - 0 mm 4.02 m/s, 198° - -

* Rain latest hour (hover to see other rain measurements)
** Current wind speed in m/s (hover to see current wind gust speed)